| time (UTC) | temp C | wind direction | speed KPH | gust KPH | rain 1hr cm | rain 24hr cm | rain mn cm | humidity % | barometer mb |
| 20260506095801 | 10 | 230 | 6.4 | 0.0 | 0.00 | 0.00 | 0.00 | 90 | 1005.8 |
| 20260506095702 | 10 | 230 | 6.4 | 0.0 | 0.00 | 0.00 | 0.00 | 90 | 1005.8 |
| 20260506095601 | 10 | 230 | 6.4 | 0.0 | 0.00 | 0.00 | 0.00 | 90 | 1005.8 |
| 20260506095502 | 10 | 242 | 6.4 | 0.0 | 0.00 | 0.00 | 0.00 | 90 | 1005.7 |
| 20260506095402 | 10 | 242 | 6.4 | 0.0 | 0.00 | 0.00 | 0.00 | 90 | 1005.7 |
| 20260506095305 | 10 | 235 | 6.4 | 0.0 | 0.00 | 0.00 | 0.00 | 90 | 1005.7 |
| 20260506095202 | 10 | 235 | 6.4 | 0.0 | 0.00 | 0.00 | 0.00 | 90 | 1005.7 |
| 20260506095101 | 10 | 235 | 6.4 | 0.0 | 0.00 | 0.00 | 0.00 | 90 | 1005.7 |
| 20260506095002 | 10 | 222 | 9.7 | 0.0 | 0.00 | 0.00 | 0.00 | 90 | 1005.7 |
| 20260506094901 | 10 | 222 | 9.7 | 0.0 | 0.00 | 0.00 | 0.00 | 90 | 1005.7 |
| 20260506094802 | 10 | 250 | 8.0 | 0.0 | 0.00 | 0.00 | 0.00 | 90 | 1005.7 |
| 20260506094701 | 10 | 250 | 8.0 | 0.0 | 0.00 | 0.00 | 0.00 | 90 | 1005.7 |
| 20260506094602 | 10 | 250 | 8.0 | 0.0 | 0.00 | 0.00 | 0.00 | 90 | 1005.7 |
| 20260506094502 | 10 | 250 | 8.0 | 0.0 | 0.00 | 0.00 | 0.00 | 90 | 1005.7 |
| 20260506094401 | 10 | 250 | 8.0 | 0.0 | 0.00 | 0.00 | 0.00 | 90 | 1005.7 |
| 20260506094302 | 10 | 230 | 6.4 | 0.0 | 0.00 | 0.00 | 0.00 | 90 | 1005.7 |
| 20260506094201 | 10 | 230 | 6.4 | 0.0 | 0.00 | 0.00 | 0.00 | 90 | 1005.6 |
| 20260506094102 | 10 | 230 | 6.4 | 0.0 | 0.00 | 0.00 | 0.00 | 90 | 1005.6 |
| 20260506094001 | 10 | 217 | 6.4 | 0.0 | 0.00 | 0.00 | 0.00 | 91 | 1005.6 |
| 20260506093902 | 10 | 217 | 6.4 | 0.0 | 0.00 | 0.00 | 0.00 | 91 | 1005.5 |
| 20260506093802 | 10 | 217 | 6.4 | 0.0 | 0.00 | 0.00 | 0.00 | 91 | 1005.6 |
| 20260506093702 | 10 | 217 | 6.4 | 0.0 | 0.00 | 0.00 | 0.00 | 91 | 1005.5 |
| 20260506093602 | 10 | 217 | 6.4 | 0.0 | 0.00 | 0.00 | 0.00 | 91 | 1005.5 |
| 20260506093502 | 10 | 230 | 6.4 | 0.0 | 0.00 | 0.00 | 0.00 | 91 | 1005.5 |
| 20260506093402 | 10 | 230 | 6.4 | 0.0 | 0.00 | 0.00 | 0.00 | 91 | 1005.5 |
| 20260506093301 | 10 | 230 | 6.4 | 0.0 | 0.00 | 0.00 | 0.00 | 91 | 1005.5 |
| 20260506093202 | 10 | 230 | 6.4 | 0.0 | 0.00 | 0.00 | 0.00 | 91 | 1005.5 |
| 20260506093101 | 10 | 230 | 6.4 | 0.0 | 0.00 | 0.00 | 0.00 | 91 | 1005.5 |
| 20260506093002 | 10 | 235 | 4.8 | 0.0 | 0.00 | 0.00 | 0.00 | 91 | 1005.6 |
| 20260506092901 | 10 | 235 | 4.8 | 0.0 | 0.00 | 0.00 | 0.00 | 91 | 1005.6 |
| 20260506092802 | 10 | 235 | 4.8 | 0.0 | 0.00 | 0.00 | 0.00 | 91 | 1005.6 |
| 20260506092702 | 10 | 240 | 0.0 | 0.0 | 0.00 | 0.00 | 0.00 | 91 | 1005.7 |
| 20260506092601 | 10 | 240 | 0.0 | 0.0 | 0.00 | 0.00 | 0.00 | 91 | 1005.7 |
| 20260506092502 | 10 | 247 | 0.0 | 0.0 | 0.00 | 0.00 | 0.00 | 91 | 1005.7 |
| 20260506092401 | 10 | 247 | 0.0 | 0.0 | 0.00 | 0.00 | 0.00 | 91 | 1005.7 |
| 20260506092302 | 10 | 247 | 0.0 | 0.0 | 0.00 | 0.00 | 0.00 | 91 | 1005.8 |
| 20260506092201 | 10 | 247 | 0.0 | 0.0 | 0.00 | 0.00 | 0.00 | 91 | 1005.7 |
| 20260506092102 | 10 | 247 | 0.0 | 0.0 | 0.00 | 0.00 | 0.00 | 91 | 1005.7 |
| 20260506092002 | 10 | 230 | 4.8 | 0.0 | 0.00 | 0.00 | 0.00 | 91 | 1005.7 |
| 20260506091901 | 10 | 230 | 4.8 | 0.0 | 0.00 | 0.00 | 0.00 | 91 | 1005.7 |
| 20260506091802 | 10 | 230 | 4.8 | 0.0 | 0.00 | 0.00 | 0.00 | 91 | 1005.7 |
| 20260506091702 | 10 | 212 | 0.0 | 0.0 | 0.00 | 0.00 | 0.00 | 91 | 1005.7 |
| 20260506091602 | 10 | 212 | 0.0 | 0.0 | 0.00 | 0.00 | 0.00 | 91 | 1005.7 |
| 20260506091501 | 10 | 220 | 0.0 | 0.0 | 0.00 | 0.00 | 0.00 | 91 | 1005.7 |
| 20260506091402 | 10 | 220 | 0.0 | 0.0 | 0.00 | 0.00 | 0.00 | 91 | 1005.6 |
| 20260506091302 | 10 | 220 | 0.0 | 0.0 | 0.00 | 0.00 | 0.00 | 91 | 1005.6 |
| 20260506091201 | 10 | 220 | 0.0 | 0.0 | 0.00 | 0.00 | 0.00 | 91 | 1005.6 |
| 20260506091102 | 10 | 220 | 0.0 | 0.0 | 0.00 | 0.00 | 0.00 | 91 | 1005.6 |
| 20260506091001 | 10 | 220 | 0.0 | 0.0 | 0.00 | 0.00 | 0.00 | 91 | 1005.6 |
| 20260506090902 | 10 | 225 | 6.4 | 0.0 | 0.00 | 0.00 | 0.00 | 91 | 1005.6 |
| 20260506090801 | 10 | 225 | 6.4 | 0.0 | 0.00 | 0.00 | 0.00 | 91 | 1005.6 |
| 20260506090702 | 10 | 220 | 6.4 | 0.0 | 0.00 | 0.00 | 0.00 | 91 | 1005.6 |
| 20260506090601 | 10 | 220 | 6.4 | 0.0 | 0.00 | 0.00 | 0.00 | 91 | 1005.6 |
| 20260506090502 | 10 | 220 | 6.4 | 0.0 | 0.00 | 0.00 | 0.00 | 91 | 1005.6 |
| 20260506090402 | 10 | 227 | 6.4 | 0.0 | 0.00 | 0.00 | 0.00 | 91 | 1005.6 |
| 20260506090301 | 10 | 227 | 6.4 | 0.0 | 0.00 | 0.00 | 0.00 | 91 | 1005.6 |
| 20260506090202 | 10 | 227 | 6.4 | 0.0 | 0.00 | 0.00 | 0.00 | 91 | 1005.6 |
| 20260506090002 | 10 | 220 | 6.4 | 0.0 | 0.00 | 0.00 | 0.00 | 91 | 1005.6 |
| 20260506085901 | 10 | 220 | 6.4 | 0.0 | 0.00 | 0.00 | 0.00 | 91 | 1005.5 |
| 20260506085802 | 10 | 217 | 0.0 | 0.0 | 0.00 | 0.00 | 0.00 | 91 | 1005.6 |
| 20260506085702 | 10 | 217 | 0.0 | 0.0 | 0.00 | 0.00 | 0.00 | 91 | 1005.5 |
| 20260506085602 | 10 | 235 | 8.0 | 0.0 | 0.00 | 0.00 | 0.00 | 91 | 1005.5 |
| 20260506085502 | 10 | 235 | 8.0 | 0.0 | 0.00 | 0.00 | 0.00 | 91 | 1005.6 |
| 20260506085401 | 10 | 222 | 4.8 | 0.0 | 0.00 | 0.00 | 0.00 | 91 | 1005.6 |
| 20260506085302 | 10 | 222 | 4.8 | 0.0 | 0.00 | 0.00 | 0.00 | 91 | 1005.6 |
| 20260506085201 | 10 | 222 | 4.8 | 0.0 | 0.00 | 0.00 | 0.00 | 91 | 1005.6 |
| 20260506085102 | 10 | 225 | 6.4 | 0.0 | 0.00 | 0.00 | 0.00 | 91 | 1005.6 |
| 20260506085001 | 10 | 225 | 6.4 | 0.0 | 0.00 | 0.00 | 0.00 | 91 | 1005.5 |
| 20260506084902 | 10 | 207 | 6.4 | 0.0 | 0.00 | 0.00 | 0.00 | 91 | 1005.5 |
| 20260506084801 | 10 | 207 | 6.4 | 0.0 | 0.00 | 0.00 | 0.00 | 91 | 1005.5 |
| 20260506084702 | 10 | 207 | 6.4 | 0.0 | 0.00 | 0.00 | 0.00 | 91 | 1005.5 |
| 20260506084602 | 10 | 227 | 0.0 | 0.0 | 0.00 | 0.00 | 0.00 | 91 | 1005.5 |
| 20260506084502 | 10 | 227 | 0.0 | 0.0 | 0.00 | 0.00 | 0.00 | 91 | 1005.5 |
| 20260506084402 | 10 | 227 | 0.0 | 0.0 | 0.00 | 0.00 | 0.00 | 91 | 1005.5 |
| 20260506084301 | 10 | 227 | 0.0 | 0.0 | 0.00 | 0.00 | 0.00 | 91 | 1005.4 |
| 20260506084202 | 10 | 217 | 6.4 | 0.0 | 0.00 | 0.00 | 0.00 | 91 | 1005.4 |
| 20260506084101 | 10 | 217 | 6.4 | 0.0 | 0.00 | 0.00 | 0.00 | 91 | 1005.4 |
| 20260506084002 | 10 | 217 | 6.4 | 0.0 | 0.00 | 0.00 | 0.00 | 91 | 1005.5 |
| 20260506083901 | 10 | 222 | 0.0 | 0.0 | 0.00 | 0.00 | 0.00 | 91 | 1005.4 |
| 20260506083802 | 10 | 222 | 0.0 | 0.0 | 0.00 | 0.00 | 0.00 | 91 | 1005.4 |
| 20260506083702 | 10 | 222 | 0.0 | 0.0 | 0.00 | 0.00 | 0.00 | 91 | 1005.4 |
| 20260506083601 | 10 | 222 | 0.0 | 0.0 | 0.00 | 0.00 | 0.00 | 91 | 1005.5 |
| 20260506083502 | 10 | 222 | 0.0 | 0.0 | 0.00 | 0.00 | 0.00 | 91 | 1005.5 |
| 20260506083401 | 10 | 222 | 6.4 | 0.0 | 0.00 | 0.00 | 0.00 | 91 | 1005.5 |
| 20260506083302 | 10 | 222 | 6.4 | 0.0 | 0.00 | 0.00 | 0.00 | 91 | 1005.4 |
| 20260506083201 | 10 | 210 | 9.7 | 0.0 | 0.00 | 0.00 | 0.00 | 91 | 1005.4 |
| 20260506083102 | 10 | 205 | 4.8 | 0.0 | 0.00 | 0.00 | 0.00 | 91 | 1005.4 |
| 20260506083002 | 10 | 205 | 4.8 | 0.0 | 0.00 | 0.00 | 0.00 | 91 | 1005.4 |
| 20260506082901 | 10 | 217 | 6.4 | 0.0 | 0.00 | 0.00 | 0.00 | 91 | 1005.4 |
| 20260506082802 | 10 | 217 | 6.4 | 0.0 | 0.00 | 0.00 | 0.00 | 91 | 1005.4 |
| 20260506082701 | 10 | 217 | 6.4 | 0.0 | 0.00 | 0.00 | 0.00 | 91 | 1005.4 |
| 20260506082602 | 10 | 210 | 6.4 | 0.0 | 0.00 | 0.00 | 0.00 | 91 | 1005.4 |
| 20260506082501 | 10 | 210 | 6.4 | 0.0 | 0.00 | 0.00 | 0.00 | 91 | 1005.3 |
| 20260506082402 | 10 | 210 | 4.8 | 0.0 | 0.00 | 0.00 | 0.00 | 91 | 1005.3 |
| 20260506082304 | 10 | 210 | 4.8 | 0.0 | 0.00 | 0.00 | 0.00 | 91 | 1005.3 |
| 20260506082202 | 10 | 220 | 0.0 | 0.0 | 0.00 | 0.00 | 0.00 | 91 | 1005.4 |
| 20260506082102 | 10 | 220 | 0.0 | 0.0 | 0.00 | 0.00 | 0.00 | 91 | 1005.3 |
| 20260506082002 | 10 | 220 | 0.0 | 0.0 | 0.00 | 0.00 | 0.00 | 91 | 1005.3 |
| 20260506081902 | 10 | 215 | 0.0 | 0.0 | 0.00 | 0.00 | 0.00 | 91 | 1005.3 |
| 20260506081801 | 10 | 215 | 0.0 | 0.0 | 0.00 | 0.00 | 0.00 | 91 | 1005.3 |
| 20260506081702 | 10 | 215 | 0.0 | 0.0 | 0.00 | 0.00 | 0.00 | 91 | 1005.3 |
| 20260506081601 | 10 | 205 | 4.8 | 0.0 | 0.00 | 0.00 | 0.00 | 91 | 1005.3 |
| 20260506081502 | 10 | 205 | 4.8 | 0.0 | 0.00 | 0.00 | 0.00 | 91 | 1005.3 |
| 20260506081401 | 10 | 205 | 4.8 | 0.0 | 0.00 | 0.00 | 0.00 | 91 | 1005.3 |
| 20260506081302 | 10 | 207 | 6.4 | 0.0 | 0.00 | 0.00 | 0.00 | 91 | 1005.3 |
| 20260506081202 | 10 | 207 | 6.4 | 0.0 | 0.00 | 0.00 | 0.00 | 91 | 1005.3 |
| 20260506081102 | 10 | 190 | 9.7 | 0.0 | 0.00 | 0.00 | 0.00 | 91 | 1005.1 |
| 20260506081002 | 10 | 190 | 9.7 | 0.0 | 0.00 | 0.00 | 0.00 | 91 | 1005.1 |
| 20260506080901 | 10 | 190 | 6.4 | 0.0 | 0.00 | 0.00 | 0.00 | 91 | 1005.1 |
| 20260506080802 | 10 | 190 | 6.4 | 0.0 | 0.00 | 0.00 | 0.00 | 91 | 1005.3 |
| 20260506080701 | 10 | 190 | 6.4 | 0.0 | 0.00 | 0.00 | 0.00 | 91 | 1005.3 |
| 20260506080603 | 10 | 190 | 6.4 | 0.0 | 0.00 | 0.00 | 0.00 | 91 | 1005.3 |
| 20260506080502 | 10 | 190 | 6.4 | 0.0 | 0.00 | 0.00 | 0.00 | 91 | 1005.3 |
| 20260506080402 | 10 | 190 | 6.4 | 0.0 | 0.00 | 0.00 | 0.00 | 91 | 1005.1 |
| 20260506080302 | 10 | 200 | 4.8 | 0.0 | 0.00 | 0.00 | 0.00 | 91 | 1005.1 |
| 20260506080202 | 10 | 212 | 0.0 | 0.0 | 0.00 | 0.00 | 0.00 | 91 | 1005.1 |
| 20260506073501 | 9 | 202 | 0.0 | 0.0 | 0.00 | 0.00 | 0.00 | 92 | 1005.0 |
| 20260506073402 | 9 | 202 | 0.0 | 0.0 | 0.00 | 0.00 | 0.00 | 92 | 1005.0 |
| 20260506073302 | 9 | 202 | 0.0 | 0.0 | 0.00 | 0.00 | 0.00 | 92 | 1005.0 |
| 20260506073202 | 9 | 202 | 0.0 | 0.0 | 0.00 | 0.00 | 0.00 | 92 | 1005.0 |
| 20260506073102 | 9 | 202 | 0.0 | 0.0 | 0.00 | 0.00 | 0.00 | 92 | 1005.1 |
| 20260506073002 | 9 | 207 | 0.0 | 0.0 | 0.00 | 0.00 | 0.00 | 92 | 1005.1 |
| 20260506072901 | 9 | 207 | 0.0 | 0.0 | 0.00 | 0.00 | 0.00 | 92 | 1005.0 |
| 20260506072802 | 9 | 220 | 0.0 | 0.0 | 0.00 | 0.00 | 0.00 | 92 | 1005.1 |
| 20260506072701 | 9 | 220 | 0.0 | 0.0 | 0.00 | 0.00 | 0.00 | 92 | 1005.1 |
| 20260506072602 | 9 | 225 | 0.0 | 0.0 | 0.00 | 0.00 | 0.00 | 92 | 1005.0 |
| 20260506072501 | 9 | 225 | 0.0 | 0.0 | 0.00 | 0.00 | 0.00 | 92 | 1005.1 |
| 20260506072402 | 9 | 225 | 0.0 | 0.0 | 0.00 | 0.00 | 0.00 | 92 | 1005.0 |
| 20260506072305 | 9 | 225 | 0.0 | 0.0 | 0.00 | 0.00 | 0.00 | 92 | 1005.1 |
| 20260506072201 | 9 | 225 | 0.0 | 0.0 | 0.00 | 0.00 | 0.00 | 92 | 1005.1 |
| 20260506072003 | 9 | 215 | 0.0 | 0.0 | 0.00 | 0.00 | 0.00 | 92 | 1005.1 |
| 20260506071903 | 12 | 227 | 9.7 | 0.0 | 0.00 | 0.00 | 0.00 | 88 | 1008.2 |